CZ-6A DEB, 56685

Orbit data source: Space-Track

CZ-6A DEB, 56685 is space debris in SSO originally from a launch on Fri, 11 Nov 2022 UTC launched from the Taiyaun Space Center, China (TSC). Debris objects in space refer to the collection of defunct objects orbiting the Earth. Examples of debris include non-operational satellites, rocket bodies, and fragments generated from explosions, collisions, or faulty payload assembly.

Loading next visibility...
Identifier
56685, 2022-151AHM
Orbit
SSO
Country
Flag of CNCN / PRC
Related business
Manufacturer
SAST
Mission
Spacecraft
Bus & Motor
Unknown
Mass
Unknown
Launch date (UTC)
2022-11-11 (4 years ago)
Launch vehicle
Unknown
Launch site
Taiyaun Space Center, China (TSC)
Object type
Payload
Rocket body
Debris
Shape & HBR
Unknown shape, 0.1 m
Radar Cross Section
Small (<0.1 m²)

Expand to show TLE details & history
Last TLE update: 1 day ago

TLE from 1 day ago
0 CZ-6A DEB
1 56685U 22151AHM 26263.85190746  .00001366  00000-0  66534-3 0  9993
2 56685  98.8217 270.1110 0043352  40.1891 320.2477 14.19316794174854
Epoch: 2026-09-20T20:26Z
TLE epoch observation values (Epoch: 2026-09-20T20:26:44.804Z)
Latitude
-0.00004°
Longitude
-36.31583°
Altitude
806.608 km
Speed
7.462 km/s
True Right ascension
18h 00m 26s
True Declination
0° 00' 00"
Sunlit
Object was in daylight at epoch
Visualization orbit readout
Latitude
Unknown
Longitude
Unknown
Altitude
Unknown
Speed
Unknown
Apparent Right ascension
Unknown
Apparent Declination
Unknown
Sunlit
N/A
Visualization observer readout
Local Sidereal Time
13:49:58
Azimuth
Unknown
Elevation
Unknown
Doppler factor
Unknown
Orbital elements
Apogee altitude
856.055 km
Perigee altitude
793.603 km
Semi-major axis
7,202.966 km
Eccentricity
0.00434
Inclination
98.8217°
RAAN
270.111°
Arg. of periapsis
40.1891°
True anomaly
319.9287°
Mean anomaly
320.2477°
Eccentric anomaly
320.08833°
Mean motion
3.55039 °/min
Orbital period
101.4 mins
BSTAR
0.00066534
Loading maneuver chart data...
Computing Atmospheric mass density...
Loading historical data...
Loading historical data...
Loading historical data...
Loading historical data...
Loading historical data...
Loading historical data...
Loading historical data...

Documentation

Showing up to 5 results
|